Stanley, ID

12:00 PM MST on December 06, 2016 (GMT -0700)
Stanley

Weather History for KSNT - March, 2013

Change the Weather History Date:

Tuesday, March 19, 2013

  Actual Average Record
Temperature  
Mean Temperature 18 °F 28 °F  
Max Temperature 42 °F 42 °F 56 °F (1997)
Min Temperature -6 °F 13 °F -24 °F (1965)
Degree Days  
Heating Degree Days 47 37  
Month to date heating degree days 745 751  
Since 1 July heating degree days 7830 8285  
Cooling Degree Days 0 0  
Month to date cooling degree days 0 0  
Year to date cooling degree days 0 0  
Moisture  
Dew Point 2 °F    
Average Humidity 52    
Maximum Humidity 91    
Minimum Humidity 12    
Precipitation  
Precipitation 0.00 in 0.07 in 0.83 in (2001)
Month to date precipitation 0.97 1.01  
Year to date precipitation 2.21 4.32  
Sea Level Pressure  
Sea Level Pressure 30.20 in    
Wind  
Wind Speed 4 mph (South)    
Max Wind Speed 14 mph    
Max Gust Speed 18 mph    
T = Trace of Precipitation, MM = Missing Value Source: NWS Daily Summary

Daily Weather History Graph

Daily Weather History Graph

Search for Another Location

Airport or City:

Trip Planner

Search our weather history database for the weather conditions in past years. The results will help you decide how hot, cold, wet, or windy it might be!

Date:

Astronomy

Mar. 19, 2013 Rise Set
Actual Time 7:44 AM MDT 7:51 PM MDT
Civil Twilight 7:15 AM MDT 8:20 PM MDT
Nautical Twilight 6:41 AM MDT 8:54 PM MDT
Astronomical Twilight 6:06 AM MDT 9:28 PM MDT
Moon 12:26 PM MDT (3/19) 2:53 AM MDT (3/19)
Length of Visible Light 13h 04m
Length of Day
12h 07m
Waxing Crescent, 50% of the Moon is Illuminated
Mar 19
Waxing Crescent
Mar 27
Full
Apr 2
Last Quarter
Apr 10
New
Apr 18
First Quarter

Hourly Weather History & Observations

Time (MDT) Temp. Windchill Dew Point Humidity Pressure Visibility Wind Dir Wind Speed Gust Speed Precip Events Conditions
12:51 AM 14.0 °F 6.5 °F 3.9 °F 64% 30.14 in - Variable 4.6 mph - N/A   Unknown
1:51 AM 14.0 °F 6.5 °F 3.9 °F 64% 30.14 in - South 4.6 mph - N/A   Unknown
2:51 AM 5.0 °F - -0.9 °F 76% 30.19 in - Calm Calm - N/A   Unknown
3:51 AM 5.0 °F - -0.0 °F 80% 30.20 in - Calm Calm - N/A   Unknown
4:51 AM -0.0 °F - -2.9 °F 88% 30.22 in - Calm Calm - N/A   Unknown
5:51 AM 1.0 °F - -4.0 °F 79% 30.22 in - Calm Calm - N/A   Unknown
6:51 AM -2.9 °F - -7.1 °F 82% 30.30 in - Calm Calm - N/A   Unknown
7:51 AM -0.9 °F -11.0 °F -6.0 °F 79% 30.32 in - South 4.6 mph - N/A   Unknown
8:51 AM -0.0 °F - -4.0 °F 83% 30.36 in - Calm Calm - N/A   Unknown
9:51 AM 7.0 °F - -0.0 °F 73% 30.33 in - Calm Calm - N/A   Unknown
10:51 AM 12.9 °F - 3.9 °F 67% 30.32 in - Calm Calm - N/A   Unknown
11:51 AM 19.9 °F - 3.0 °F 48% 30.28 in - Calm Calm - N/A   Unknown
12:51 PM 25.0 °F 20.7 °F 6.1 °F 45% 30.25 in - NNW 3.5 mph - N/A   Unknown
1:51 PM 32.0 °F - 7.0 °F 35% 30.20 in - Calm Calm - N/A   Unknown
2:51 PM 37.0 °F 33.3 °F 3.0 °F 24% 30.18 in - NNW 4.6 mph - N/A   Unknown
3:51 PM 39.0 °F 34.8 °F -2.9 °F 17% 30.15 in - NNW 5.8 mph - N/A   Unknown
4:51 PM 39.9 °F 32.9 °F -9.0 °F 12% 30.17 in - SSE 11.5 mph - N/A   Unknown
5:51 PM 39.9 °F 33.9 °F -2.9 °F 16% 30.15 in - South 9.2 mph - N/A   Unknown
6:51 PM 37.9 °F 32.1 °F 1.0 °F 21% 30.17 in - South 8.1 mph - N/A   Unknown
7:51 PM 34.0 °F 28.8 °F 7.0 °F 32% 30.17 in - South 5.8 mph - N/A   Unknown
8:51 PM 32.0 °F 25.6 °F 8.1 °F 37% 30.17 in - South 6.9 mph - N/A   Unknown
9:51 PM 33.1 °F 25.5 °F 12.9 °F 43% 30.12 in - SSE 9.2 mph 18.4 mph N/A   Unknown
10:51 PM 34.0 °F 27.2 °F 12.9 °F 42% 30.06 in - South 8.1 mph - N/A   Unknown
11:51 PM 34.0 °F 26.6 °F 12.9 °F 42% 30.01 in - SSE 9.2 mph - N/A   Unknown